Spokane Felts, WA

11:33 AM PDT on October 18, 2017 (GMT -0700)
Felts

Weather History for KSFF - December, 2012

Change the Weather History Date:

Wednesday, December 19, 2012

  Actual Average Record
Temperature  
Mean Temperature 31 °F 29 °F  
Max Temperature 35 °F 35 °F 45 °F (2014)
Min Temperature 27 °F 23 °F 6 °F (1998)
Degree Days  
Heating Degree Days 34 36  
Month to date heating degree days 505 663  
Since 1 July heating degree days 1778 2237  
Cooling Degree Days 0 0  
Month to date cooling degree days 0 0  
Year to date cooling degree days 509 406  
Moisture  
Dew Point 24 °F    
Average Humidity 66    
Maximum Humidity 85    
Minimum Humidity 47    
Precipitation  
Precipitation T in 0.09 in 0.10 in (2007)
Month to date precipitation 1.23 1.60  
Year to date precipitation 19.99 16.82  
Sea Level Pressure  
Sea Level Pressure 29.99 in    
Wind  
Wind Speed 5 mph (SE)    
Max Wind Speed 18 mph    
Max Gust Speed 24 mph    
Visibility 5 miles    
Events Snow    
T = Trace of Precipitation, MM = Missing Value Source: NWS Daily Summary

Daily Weather History Graph

Daily Weather History Graph

Search for Another Location

Airport or City:

Trip Planner

Search our weather history database for the weather conditions in past years. The results will help you decide how hot, cold, wet, or windy it might be!

Date:

Astronomy

Dec. 19, 2012 Rise Set
Actual Time 7:34 AM PST 3:59 PM PST
Civil Twilight 6:58 AM PST 4:35 PM PST
Nautical Twilight 6:18 AM PST 5:14 PM PST
Astronomical Twilight 5:41 AM PST 5:52 PM PST
Moon 11:16 AM PST (12/19) No Moon Set
Length of Visible Light 9h 37m
Length of Day
8h 25m
Waxing Crescent, 46% of the Moon is Illuminated
Dec 19
Waxing Crescent
Dec 19
First Quarter
Dec 28
Full
Jan 4
Last Quarter
Jan 11
New

Hourly Weather History & Observations

Time (PST) Temp. Windchill Dew Point Humidity Pressure Visibility Wind Dir Wind Speed Gust Speed Precip Events Conditions
12:53 AM 28.0 °F 24.2 °F 21.9 °F 78% 30.01 in 10.0 mi WSW 3.5 mph - N/A   Overcast
1:53 AM 27.0 °F 23.0 °F 21.0 °F 78% 30.03 in 10.0 mi Variable 3.5 mph - N/A   Mostly Cloudy
2:53 AM 27.0 °F - 21.9 °F 81% 30.05 in 10.0 mi Calm Calm - N/A   Overcast
3:53 AM 28.0 °F 22.8 °F 21.9 °F 78% 30.04 in 10.0 mi South 4.6 mph - N/A   Overcast
4:53 AM 28.0 °F 24.2 °F 21.0 °F 75% 30.05 in 10.0 mi South 3.5 mph - N/A   Overcast
5:53 AM 28.9 °F - 21.9 °F 75% 30.06 in 10.0 mi Calm Calm - N/A   Overcast
6:53 AM 28.9 °F 23.9 °F 21.0 °F 72% 30.06 in 10.0 mi South 4.6 mph - N/A   Overcast
7:53 AM 30.0 °F 26.5 °F 19.9 °F 66% 30.06 in 10.0 mi East 3.5 mph - N/A   Overcast
7:59 AM 30.2 °F - 19.4 °F 64% 30.00 in 10.0 mi Calm Calm - N/A   Overcast
8:53 AM 32.0 °F 27.5 °F 19.0 °F 59% 30.06 in 10.0 mi ESE 4.6 mph - N/A   Overcast
9:53 AM 33.1 °F 26.1 °F 19.0 °F 56% 30.06 in 10.0 mi SE 8.1 mph - N/A   Overcast
10:53 AM 33.1 °F 26.9 °F 19.0 °F 56% 30.05 in 10.0 mi SE 6.9 mph - N/A   Overcast
11:53 AM 34.0 °F 27.2 °F 19.0 °F 54% 30.03 in 10.0 mi SE 8.1 mph - N/A   Overcast
12:53 PM 34.0 °F 28.0 °F 17.1 °F 50% 30.02 in 10.0 mi SSE 6.9 mph 16.1 mph N/A   Overcast
1:53 PM 35.1 °F 26.4 °F 17.1 °F 48% 30.01 in 10.0 mi SSE 12.7 mph 21.9 mph N/A   Overcast
2:19 PM 32.0 °F 22.5 °F 21.2 °F 64% 29.97 in 2.5 mi South 12.7 mph 18.4 mph 0.00 in Snow Light Snow
2:53 PM 30.9 °F 22.8 °F 24.1 °F 76% 30.03 in 1.5 mi SSE 9.2 mph 16.1 mph 0.00 in Snow Light Snow
3:53 PM 30.0 °F 24.1 °F 25.0 °F 82% 30.02 in 1.5 mi ESE 5.8 mph - 0.00 in Snow Light Snow
4:53 PM 30.9 °F 26.2 °F 25.0 °F 79% 30.01 in 1.5 mi ESE 4.6 mph - 0.00 in Snow Light Snow
5:53 PM 30.9 °F 24.3 °F 25.0 °F 79% 30.01 in 1.8 mi SE 6.9 mph - 0.00 in Snow Light Snow
6:34 PM 30.2 °F 22.6 °F 24.8 °F 80% 29.94 in 2.0 mi ESE 8.1 mph - 0.00 in Snow Light Snow
6:53 PM 30.9 °F - 26.1 °F 82% 29.99 in 5.0 mi Calm Calm - 0.00 in Snow Light Snow
7:53 PM 32.0 °F 27.5 °F 27.0 °F 82% 29.98 in 1.0 mi Variable 4.6 mph - 0.00 in Snow Light Snow
8:03 PM 32.0 °F - 26.6 °F 80% 29.92 in 1.0 mi Calm Calm - 0.00 in Snow Light Snow
8:30 PM 32.0 °F 24.2 °F 26.6 °F 80% 29.92 in 2.0 mi ESE 9.2 mph - 0.00 in Snow Light Snow
8:53 PM 32.0 °F 24.2 °F 27.0 °F 82% 29.96 in 2.0 mi East 9.2 mph - 0.00 in Snow Light Snow
9:11 PM 33.8 °F 28.6 °F 26.6 °F 75% 29.91 in 4.0 mi Variable 5.8 mph - 0.00 in Snow Light Snow
9:43 PM 33.8 °F 27.0 °F 26.6 °F 75% 29.91 in 2.0 mi ESE 8.1 mph 17.3 mph 0.00 in Snow Light Snow
9:45 PM 33.8 °F 27.0 °F 26.6 °F 75% 29.91 in 1.8 mi East 8.1 mph - 0.00 in Snow Light Snow
9:53 PM 33.1 °F 25.5 °F 27.0 °F 78% 29.96 in 1.5 mi East 9.2 mph - 0.00 in Snow Light Snow
10:22 PM 33.8 °F 26.4 °F 26.6 °F 75% 29.92 in 1.8 mi ESE 9.2 mph 16.1 mph 0.00 in Snow Light Snow
10:34 PM 33.8 °F 25.3 °F 26.6 °F 75% 29.92 in 1.8 mi SE 11.5 mph 16.1 mph 0.00 in Snow Light Snow
10:53 PM 33.1 °F 28.7 °F 27.0 °F 78% 29.97 in 1.2 mi Variable 4.6 mph 19.6 mph 0.00 in Snow Light Snow
11:21 PM 32.0 °F 27.5 °F 26.6 °F 80% 29.93 in 1.2 mi Variable 4.6 mph - 0.00 in Snow Light Snow
11:38 PM 32.0 °F 27.5 °F 26.6 °F 80% 29.92 in 2.0 mi Variable 4.6 mph - 0.00 in Snow Light Snow
11:43 PM 33.8 °F 30.8 °F 28.4 °F 81% 29.92 in 3.0 mi Variable 3.5 mph - 0.00 in Snow Light Snow
11:50 PM 32.0 °F 26.4 °F 26.6 °F 80% 29.91 in 2.5 mi Variable 5.8 mph - 0.00 in Snow Light Snow
11:53 PM 33.1 °F - 27.0 °F 78% 29.96 in 2.5 mi Calm Calm - 0.00 in Snow Light Snow